Weather History for Pensacola NAS, FL

Change the Weather History Date:

Friday, January 18, 2013

  Actual Average Record
Temperature  
Mean Temperature 48 °F -  
Max Temperature 60 °F 59 °F - (-1)
Min Temperature 36 °F 41 °F - (-1)
Degree Days  
Heating Degree Days 17    
Moisture  
Dew Point 36 °F    
Average Humidity 73    
Maximum Humidity 100    
Minimum Humidity 36    
Precipitation  
Precipitation 0.00 in - - ()
Sea Level Pressure  
Sea Level Pressure 30.42 in    
Wind  
Wind Speed 8 mph (NNE)    
Max Wind Speed 14 mph    
Max Gust Speed 21 mph    
Visibility 10 miles    
Events Rain    
Averages and records for this station are not official NWS values.
T = Trace of Precipitation, MM = Missing Value Source: NWS Daily Summary

Daily Weather History Graph

Daily Weather History Graph

Search for Another Location

Airport:

Trip Planner

Search our weather history database for the weather conditions in past years. The results will help you decide how hot, cold, wet, or windy it might be!

Date:

Astronomy

Jan. 18, 2013 Rise Set
Actual Time 6:46 AM CST 5:13 PM CST
Civil Twilight 6:20 AM CST 5:39 PM CST
Nautical Twilight 5:50 AM CST 6:09 PM CST
Astronomical Twilight 5:22 AM CST 6:37 PM CST
Moon 10:59 AM CST (1/18) No Moon Set
Length of Visible Light 11h 19m
Length of Day
10h 27m
Waxing Crescent, 47% of the Moon is Illuminated
Jan 18
Waxing Crescent
Jan 18
First Quarter
Jan 26
Full
Feb 3
Last Quarter
Feb 10
New

Hourly Weather History & Observations

Time (CST) Temp. Windchill Dew Point Humidity Pressure Visibility Wind Dir Wind Speed Gust Speed Precip Events Conditions
12:56 AM 41.0 °F 34.7 °F 36.0 °F 82% 30.34 in 10.0 mi NNW 10.4 mph 20.7 mph N/A   Clear
1:56 AM 39.0 °F 33.4 °F 36.0 °F 89% 30.35 in 10.0 mi NNW 8.1 mph - N/A   Clear
2:56 AM 39.0 °F 33.4 °F 36.0 °F 89% 30.38 in 10.0 mi North 8.1 mph - N/A   Clear
3:56 AM 37.9 °F 32.1 °F 35.1 °F 89% 30.39 in 10.0 mi North 8.1 mph - N/A   Clear
4:56 AM 37.0 °F 31.6 °F 35.1 °F 93% 30.41 in 10.0 mi North 6.9 mph - N/A   Clear
5:56 AM 37.0 °F 31.6 °F 34.0 °F 89% 30.44 in 10.0 mi North 6.9 mph - N/A   Clear
6:56 AM 36.0 °F 30.3 °F 34.0 °F 93% 30.45 in 10.0 mi North 6.9 mph - N/A   Scattered Clouds
7:56 AM 39.9 °F 32.5 °F 34.0 °F 79% 30.48 in 10.0 mi North 12.7 mph - N/A   Mostly Cloudy
8:56 AM 45.0 °F 38.5 °F 34.0 °F 65% 30.49 in 10.0 mi NNE 13.8 mph - N/A   Mostly Cloudy
9:56 AM 48.9 °F - 35.1 °F 59% 30.50 in 10.0 mi NE 10.4 mph - N/A   Scattered Clouds
10:56 AM 52.0 °F - 36.0 °F 54% 30.49 in 10.0 mi NNE 9.2 mph - N/A   Scattered Clouds
11:56 AM 54.0 °F - 37.0 °F 53% 30.46 in 10.0 mi ENE 10.4 mph - N/A   Partly Cloudy
12:56 PM 57.9 °F - 35.1 °F 42% 30.41 in 10.0 mi NNE 12.7 mph 18.4 mph N/A   Partly Cloudy
1:56 PM 59.0 °F - 33.1 °F 38% 30.39 in 10.0 mi North 12.7 mph - N/A   Partly Cloudy
2:56 PM 60.1 °F - 33.1 °F 36% 30.38 in 10.0 mi NNE 11.5 mph - N/A   Partly Cloudy
3:56 PM 59.0 °F - 34.0 °F 39% 30.38 in 10.0 mi NE 9.2 mph - N/A   Partly Cloudy
4:56 PM 55.9 °F - 35.1 °F 45% 30.40 in 10.0 mi NE 6.9 mph - N/A   Partly Cloudy
5:56 PM 46.0 °F 44.8 °F 39.0 °F 76% 30.40 in 10.0 mi North 3.5 mph - N/A   Partly Cloudy
6:56 PM 42.1 °F - 37.9 °F 85% 30.42 in 10.0 mi Calm Calm - N/A   Partly Cloudy
7:56 PM 39.0 °F - 37.0 °F 93% 30.43 in 10.0 mi Calm Calm - N/A   Clear
8:56 PM 39.0 °F - 37.9 °F 96% 30.42 in 10.0 mi Calm Calm - 0.00 in Rain Light Rain
9:56 PM 37.0 °F 34.5 °F 37.0 °F 100% 30.40 in 10.0 mi North 3.5 mph - 0.00 in   Clear
10:56 PM 41.0 °F 38.0 °F 37.9 °F 89% 30.38 in 10.0 mi North 4.6 mph - N/A   Clear
11:56 PM 42.1 °F 39.2 °F 37.0 °F 82% 30.38 in 10.0 mi NNE 4.6 mph - N/A   Clear